Weather Roundup
Issued by NWS Springfield, MO

Home | Current Version | Previous Version | Text Only | Print | Product List | Glossary On
Versions: 1 2 3 4 5 6 7 8 9 10 11 12 13 14 15 16 17 18 19 20 21 22 23 24 25 26 27 28 29 30 31 32 33 34 35 36 37 38 39 40 41 42 43 44 45 46 47 48 49 50
000
NZUS99 KSGF 302259
HRRSGF

HOURLY WEATHER
NATIONAL WEATHER SERVICE SPRINGFIELD MO
600 PM CDT SAT AUG 30 2014

......SGF CWA......

CITY           SKY/WX    TMP DP  RH WIND       PRES   REMARKS
SPRINGFIELD    HVY RAIN  70  67  90 SE13      29.94F FOG
JOPLIN         MOSUNNY   92  58  31 VRB3      29.88R HX  91
WEST PLAINS    PTSUNNY   81  69  67 S9        29.98R
ROLLA          CLOUDY    71  67  87 S9        29.92S
OSAGE BEACH    CLOUDY    81  70  69 SE6       29.91R
BRANSON        PTSUNNY   86  68  54 SE10      29.95R

......SURROUNDING SGF CWA......

CITY           SKY/WX    TMP DP  RH WIND       PRES   REMARKS
CHANUTE        SUNNY     93  55  27 VRB3      29.87R HX  91
PARSONS        SUNNY     93  61  34 VRB5      29.88R HX  93
COFFEYVILLE    SUNNY     93  62  35 W5        29.86R HX  93
EMPORIA        SUNNY     91  56  30 CALM      29.87F
HARRISON AR    PTSUNNY   79  71  76 SE12      29.95S
NEAR YELLVILLE PTSUNNY   73  66  78 S3        29.94S

......KANSAS AND MISSOURI......

CITY           SKY/WX    TMP DP  RH WIND       PRES   REMARKS
KANSAS CTY INT MOSUNNY   86  65  49 CALM      29.88F
DOWNTOWN KC    SUNNY     88  62  41 W5        29.87S
COLUMBIA       MOSUNNY   83  72  69 SE7       29.89R
SEDALIA        SUNNY     87  65  47 NW5       29.90R
ST JOSEPH      SUNNY     84  67  56 SW3       29.87F
ST LOUIS       LGT RAIN  81  72  74 S13       29.91R
SPIRIT OF STL  PTSUNNY   82  73  74 S3        29.89R
KIRKSVILLE     SUNNY     83  67  58 W8        29.90S
WICHITA        MOSUNNY   92  54  27 S5        29.87F HX  90
TOPEKA         SUNNY     88  65  46 NE3       29.86F HX  90
OLATHE         SUNNY     88  62  41 N5        29.88S

......TENNESSEE......

CITY           SKY/WX    TMP DP  RH WIND       PRES   REMARKS
MEMPHIS        LGT RAIN  77  74  90 S6        30.02R
NASHVILLE      CLOUDY    77  71  82 NE6       30.04R

......ARKANSAS.......

CITY           SKY/WX    TMP DP  RH WIND       PRES   REMARKS
FAYETTEVILLE   MOSUNNY   81  70  69 S6        29.94R
FT SMITH       MOSUNNY   89  69  51 S6        29.88F HX  93
LITTLE ROCK    PTSUNNY   82  71  69 SE10      29.94S

......OKLAHOMA.......

CITY           SKY/WX    TMP DP  RH WIND       PRES   REMARKS
TULSA          MOSUNNY   92  67  43 SE13      29.85S HX  95
PONCA CITY     SUNNY     91  59  33 MISG      29.86F HX  90
MCALESTER      PTSUNNY   80  70  71 SW7       29.89F
OKLAHOMA CITY  MOSUNNY   95  52  23 CALM      29.87F HX  92

......IOWA............

CITY           SKY/WX    TMP DP  RH WIND       PRES   REMARKS
DES MOINES     MOSUNNY   82  68  62 NW7       29.87R
QUAD CITIES    SUNNY     81  67  62 W7        29.86S

......ILLINOIS........

CITY           SKY/WX    TMP DP  RH WIND       PRES   REMARKS
QUINCY         MOSUNNY   84  69  60 NW6       29.87S
CHICAGO        PTSUNNY   82  64  54 W15       29.84R



USA.gov is the U.S. government's official web portal to all federal, state and local government web resources and services.